Location: Mexico
(19.4000°N, 99.1500°W)
Time: 23:54:05
(UTC-06:00)

ISS - Pass Details

Date: 18 October 2017
Orbit: 400 x 408 km, 51.6° (Epoch: 24 October)

Event Time Altitude Azimuth Distance (km) Brightness Sun altitude
Rises 18:46:35 0° 326° (NNW) 2,314 0.4 -9.1°
Reaches altitude 10° 18:48:41 10° 331° (NNW) 1,455 -0.7 -9.6°
Maximum altitude 18:51:54 55° 50° (NE) 488 -3.7 -10.4°
Drops below altitude 10° 18:55:06 10° 130° (SE) 1,455 -1.4 -11.1°
Enters shadow 18:55:24 - 131° (SE) 1,577 -1.2 -11.2°
